Weather History for Newport News, VA

Change the Weather History Date:

Monday, April 29, 2013

  Actual Average Record
Temperature  
Mean Temperature 62 °F -  
Max Temperature 68 °F 68 °F 88 °F (1951)
Min Temperature 57 °F 48 °F 35 °F (2001)
Degree Days  
Heating Degree Days 2    
Growing Degree Days 12 (Base 50)    
Moisture  
Dew Point 57 °F    
Average Humidity 82    
Maximum Humidity 88    
Minimum Humidity 76    
Precipitation  
Precipitation 1.41 in - - ()
Sea Level Pressure  
Sea Level Pressure 30.07 in    
Wind  
Wind Speed 5 mph (ESE)    
Max Wind Speed 10 mph    
Max Gust Speed -    
Visibility 4 miles    
Events Rain    
Averages and records for this station are not official NWS values.
T = Trace of Precipitation, MM = Missing Value Source: NWS Daily Summary

Daily Weather History Graph

Daily Weather History Graph

Search for Another Location

Airport:

Trip Planner

Search our weather history database for the weather conditions in past years. The results will help you decide how hot, cold, wet, or windy it might be!

Date:

Astronomy

Apr. 29, 2013 Rise Set
Actual Time 6:13 AM EDT 7:53 PM EDT
Civil Twilight 5:45 AM EDT 8:21 PM EDT
Nautical Twilight 5:12 AM EDT 8:55 PM EDT
Astronomical Twilight 4:36 AM EDT 9:30 PM EDT
Moon No Moon Rise 9:34 AM EDT (4/29)
Length of Visible Light 14h 35m
Length of Day
13h 40m
Waning Gibbous, 80% of the Moon is Illuminated
Apr 29
Waning Gibbous
May 2
Last Quarter
May 9
New
May 18
First Quarter
May 25
Full

Hourly Weather History & Observations

Time (EDT) Temp. Dew Point Humidity Pressure Visibility Wind Dir Wind Speed Gust Speed Precip Events Conditions
12:54 AM 57.9 °F 52.0 °F 81% 30.15 in 6.0 mi Calm Calm - 0.01 in Rain Light Rain
1:54 AM 57.9 °F 53.1 °F 84% 30.15 in 3.0 mi Calm Calm - 0.04 in Rain Light Rain
2:04 AM 57.2 °F 53.6 °F 88% 30.15 in 2.5 mi North 4.6 mph - 0.02 in Rain Light Rain
2:11 AM 57.2 °F 53.6 °F 88% 30.14 in 3.0 mi NE 4.6 mph - 0.03 in Rain Light Rain
2:47 AM 59.0 °F 53.6 °F 82% 30.13 in 3.0 mi Calm Calm - 0.07 in Rain Light Rain
2:54 AM 59.0 °F 54.0 °F 83% 30.13 in 3.0 mi Calm Calm - 0.08 in Rain Light Rain
3:05 AM 59.0 °F 53.6 °F 82% 30.12 in 2.5 mi NE 3.5 mph - 0.03 in Rain Light Rain
3:30 AM 59.0 °F 55.4 °F 88% 30.12 in 2.5 mi Calm Calm - 0.08 in Rain Rain
3:54 AM 59.0 °F 55.0 °F 87% 30.11 in 2.5 mi East 3.5 mph - 0.13 in Rain Light Rain
4:10 AM 60.8 °F 55.4 °F 82% 30.11 in 3.0 mi East 4.6 mph - 0.03 in Rain Light Rain
4:24 AM 60.8 °F 55.4 °F 82% 30.10 in 4.0 mi ESE 4.6 mph - 0.04 in Rain Light Rain
4:51 AM 60.8 °F 55.4 °F 82% 30.10 in 6.0 mi SE 6.9 mph - 0.07 in Rain Light Rain
4:54 AM 61.0 °F 55.9 °F 83% 30.10 in 6.0 mi SE 5.8 mph - 0.07 in Rain Light Rain
5:54 AM 61.0 °F 55.9 °F 83% 30.10 in 6.0 mi ESE 6.9 mph - 0.05 in Rain Light Rain
6:07 AM 60.8 °F 55.4 °F 82% 30.11 in 4.0 mi Calm Calm - 0.01 in Rain Light Rain
6:14 AM 60.8 °F 55.4 °F 82% 30.11 in 3.0 mi SE 4.6 mph - 0.03 in Rain Light Rain
6:35 AM 60.8 °F 55.4 °F 82% 30.11 in 3.0 mi SSE 6.9 mph - 0.09 in Rain Rain
6:54 AM 61.0 °F 55.9 °F 83% 30.11 in 3.0 mi ESE 8.1 mph - 0.14 in Rain Rain
7:01 AM 60.8 °F 55.4 °F 82% 30.10 in 2.5 mi ESE 8.1 mph - 0.02 in Rain Rain
7:15 AM 60.8 °F 55.4 °F 82% 30.11 in 3.0 mi ESE 6.9 mph - 0.04 in Rain Light Rain
7:54 AM 61.0 °F 55.0 °F 81% 30.10 in 3.0 mi ESE 6.9 mph - 0.12 in Rain Light Rain
8:19 AM 60.8 °F 55.4 °F 82% 30.10 in 3.0 mi East 8.1 mph - 0.02 in Rain Light Rain
8:37 AM 60.8 °F 55.4 °F 82% 30.11 in 2.5 mi ENE 3.5 mph - 0.06 in Rain Light Rain
8:54 AM 61.0 °F 55.0 °F 81% 30.10 in 2.0 mi ESE 9.2 mph - 0.11 in Rain Rain
9:01 AM 60.8 °F 55.4 °F 82% 30.10 in 1.8 mi ESE 8.1 mph - 0.03 in Rain Rain
9:15 AM 60.8 °F 55.4 °F 82% 30.10 in 2.5 mi SE 8.1 mph - 0.07 in Rain Light Rain
9:54 AM 60.1 °F 55.0 °F 83% 30.09 in 2.0 mi ESE 10.4 mph - 0.22 in Rain Heavy Rain
10:08 AM 60.8 °F 55.4 °F 82% 30.10 in 3.0 mi ESE 10.4 mph - 0.04 in Rain Rain
10:10 AM 60.8 °F 55.4 °F 82% 30.10 in 2.5 mi SE 10.4 mph - 0.04 in Rain Rain
10:18 AM 60.8 °F 55.4 °F 82% 30.10 in 2.5 mi SE 6.9 mph - 0.07 in Rain Rain
10:26 AM 60.8 °F 55.4 °F 82% 30.09 in 4.0 mi ESE 8.1 mph - 0.08 in Rain Light Rain
10:35 AM 60.8 °F 55.4 °F 82% 30.10 in 2.5 mi ESE 10.4 mph - 0.11 in Rain Light Rain
10:47 AM 60.8 °F 55.4 °F 82% 30.09 in 3.0 mi ESE 9.2 mph - 0.14 in Rain Light Rain
10:54 AM 60.1 °F 55.0 °F 83% 30.09 in 3.0 mi ESE 9.2 mph - 0.14 in Rain Light Rain
11:01 AM 60.8 °F 55.4 °F 82% 30.09 in 4.0 mi ESE 10.4 mph - 0.01 in Rain Light Rain
11:54 AM 61.0 °F 55.0 °F 81% 30.08 in 5.0 mi SE 10.4 mph - 0.06 in Rain Light Rain
12:54 PM 61.0 °F 55.0 °F 81% 30.06 in 3.0 mi ESE 6.9 mph - 0.05 in Rain Rain
1:02 PM 60.8 °F 55.4 °F 82% 30.06 in 2.5 mi ESE 8.1 mph - 0.02 in Rain Rain
1:13 PM 60.8 °F 55.4 °F 82% 30.05 in 4.0 mi SE 9.2 mph - 0.03 in Rain Light Rain
1:54 PM 62.1 °F 57.0 °F 84% 30.05 in 3.0 mi SE 5.8 mph - 0.05 in Rain Light Rain
2:39 PM 64.4 °F 57.2 °F 77% 30.03 in 10.0 mi SE 8.1 mph - 0.01 in   Overcast
2:54 PM 64.9 °F 59.0 °F 81% 30.03 in 10.0 mi SE 5.8 mph - 0.01 in   Overcast
3:54 PM 66.0 °F 60.1 °F 81% 30.01 in 10.0 mi SSE 5.8 mph - 0.00 in   Overcast
4:36 PM 66.2 °F 60.8 °F 83% 30.00 in 10.0 mi SSE 6.9 mph - N/A   Overcast
4:54 PM 68.0 °F 61.0 °F 78% 30.00 in 10.0 mi SSE 8.1 mph - N/A   Overcast
5:13 PM 66.2 °F 60.8 °F 83% 30.00 in 10.0 mi SSE 9.2 mph - N/A   Overcast
5:54 PM 68.0 °F 60.1 °F 76% 30.00 in 10.0 mi South 4.6 mph - 0.00 in   Overcast
6:26 PM 66.2 °F 60.8 °F 83% 30.00 in 10.0 mi SE 5.8 mph - N/A   Overcast
6:54 PM 66.9 °F 60.1 °F 79% 30.01 in 10.0 mi ESE 4.6 mph - N/A   Overcast
7:11 PM 66.2 °F 60.8 °F 83% 30.01 in 10.0 mi ESE 3.5 mph - N/A   Overcast
7:32 PM 66.2 °F 60.8 °F 83% 30.01 in 9.0 mi East 3.5 mph - N/A   Mostly Cloudy
7:54 PM 64.9 °F 60.1 °F 84% 30.01 in 7.0 mi East 4.6 mph - N/A   Overcast
8:13 PM 64.4 °F 59.0 °F 83% 30.01 in 6.0 mi ENE 5.8 mph - N/A   Haze
8:23 PM 64.4 °F 59.0 °F 83% 30.02 in 6.0 mi East 5.8 mph - N/A   Haze
8:54 PM 64.0 °F 59.0 °F 84% 30.03 in 4.0 mi East 3.5 mph - 0.00 in Rain Light Rain
9:21 PM 64.4 °F 59.0 °F 83% 30.03 in 2.0 mi East 5.8 mph - 0.08 in Rain Rain
9:45 PM 62.6 °F 57.2 °F 82% 30.04 in 2.5 mi Calm Calm - 0.13 in Rain Light Rain
9:54 PM 63.0 °F 57.9 °F 84% 30.04 in 4.0 mi Calm Calm - 0.13 in Rain Light Rain
10:54 PM 63.0 °F 57.9 °F 84% 30.04 in 5.0 mi Calm Calm - 0.00 in   Haze
11:32 PM 62.6 °F 57.2 °F 82% 30.04 in 2.0 mi NNE 4.6 mph - N/A   Haze
11:49 PM 62.6 °F 57.2 °F 82% 30.04 in 0.8 mi NNE 3.5 mph - N/A   Haze
11:54 PM 62.1 °F 57.0 °F 84% 30.04 in 0.5 mi NNE 4.6 mph - N/A   Haze